Regional Weather Roundup
Issued by NWS Bismarck, ND

Home | Current Version | Previous Version | Text Only | Print | Product List | Glossary On
Versions: 1 2 3 4 5 6 7 8 9 10 11 12 13 14 15 16 17 18 19 20 21 22 23 24 25 26 27 28 29 30 31 32 33 34 35 36 37 38 39 40 41 42 43 44 45 46 47 48 49 50
000
ASUS43 KBIS 220959
RWRBIS

NWR BROADCAST TEXT
NATIONAL WEATHER SERVICE BISMARCK ND
400 AM CST MON DEC 22 2014

NOTE: "FAIR" INDICATES FEW OR NO CLOUDS BELOW 12,000 FEET WITH NO
SIGNIFICANT WEATHER AND/OR OBSTRUCTIONS TO VISIBILITY.


CITY           SKY/WX    TMP DP  RH WIND       PRES   REMARKS
WILLISTON      FLURRIES  34  31  88 NW13      29.45R
MINOT          CLOUDY    28  27  96 SE7       29.44S FOG
MINOT AFB      NOT AVBL
BISMARCK       FOG       28  28 100 SE6       29.45S VSB 3/4
DICKINSON      NOT AVBL
GARRISON         N/A     28  28 100 E6        29.42S
HETTINGER ARPT CLOUDY    35  32  88 NW16      29.45S
JAMESTOWN      NOT AVBL
CARRINGTON     CLOUDY    32  32 100 MISG      29.47S FOG
CROSBY         FOG       27  27 100 NW7       29.44S VSB 1/2 WCI  19
OAKES          FOG       32  32 100 E9        29.44F VSB 1
WATFORD CITY   FLURRIES  32  32 100 W6        29.42S
$$

CITY           SKY/WX    TMP DP  RH WIND       PRES   REMARKS
GRAND FORKS    CLOUDY    34  33  96 SE8       29.52F
GRAND FORKS AF CLOUDY    32  32 100 E5        29.52F FOG
DEVILS LAKE    CLOUDY    30  25  80 E5        29.47S
FARGO          CLOUDY    38  36  92 SE12      29.50F
GWINNER        CLOUDY    36  36 100 SE12      29.46F
$$

CITY           SKY/WX    TMP DP  RH WIND       PRES   REMARKS
ABERDEEN       CLOUDY    36  34  92 S3        29.43F FOG
MOBRIDGE       CLOUDY    29  28  96 CALM      29.41S FOG
BUFFALO          N/A     37  31  78 W24       29.43R
RAPID CITY     MOCLDY    41  27  57 NW29G37   29.51F
GLASGOW        CLOUDY    33  27  78 NW22G30   29.56R
SIDNEY         CLOUDY    30  28  93 NW15      29.50R WCI  19
WOLF POINT     LGT SNOW  32  28  85 NW12      29.55R FOG
GLENDIVE       CLOUDY    36  30  80 W21G33    29.52R
MILES CITY     PTCLDY    37  27  67 W21G30    29.58R
BAKER          CLOUDY    35  32  88 W17G24    29.50S
$$

CITY           SKY/WX    TMP DP  RH WIND       PRES   REMARKS
BILLINGS       CLEAR     38  18  44 W20       29.71R
GREAT FALLS    MOCLDY    34  26  72 SW8       29.73R
$$




USA.gov is the U.S. government's official web portal to all federal, state and local government web resources and services.